This demonstration page uses our WeatherBlox Daily Observations layout. Learn more.

Left ArrowRight Arrow

Hourly Observations for November 8, 2016

Temp ( °F °C ) Dew Point ( °F °C ) Humidity (%) Winds ( mph kmh ) Pressure ( in mb ) Visibility ( mi km ) Precip ( " mm )
12:15 am 00:15 Clear 42 5.5 38 3.5 87 87 NNW 7 11 30.42 1030 10 16 N/A
12:35 am 00:35 Clear 41 5.1 38 3.2 88 88 NNW 6 9 30.42 1030 10 16 N/A
12:55 am 00:55 Clear 42 5.4 37 2.8 84 84 NNW 3 6 30.42 1030 10 16 N/A
1:15 am 01:15 Clear 40 4.4 37 2.5 88 88 NNW 5 7 30.45 1031 10 16 N/A
1:35 am 01:35 Clear 39 4 36 2.3 89 89 N N/A 30.45 1031 10 16 N/A
1:55 am 01:55 Clear 39 3.7 36 2.1 89 89 NW 5 7 30.45 1031 10 16 N/A
2:15 am 02:15 Clear 38 3.1 35 1.7 91 91 N N/A 30.45 1031 10 16 N/A
2:35 am 02:35 Clear 37 2.5 34 1.1 91 91 NW 5 7 30.48 1032 10 16 N/A
2:55 am 02:55 Clear 37 2.5 34 1.1 91 91 NW 7 11 30.48 1032 10 16 N/A
3:15 am 03:15 Clear 36 2.2 33 0.8 91 91 NW 6 9 30.48 1032 10 16 N/A
3:35 am 03:35 Clear 36 2.2 33 0.7 90 90 NNW 5 7 30.50 1033 10 16 N/A
3:55 am 03:55 Clear 36 2.1 33 0.7 91 91 NW 5 7 30.50 1033 10 16 N/A
4:15 am 04:15 Clear 36 2.2 34 1 92 92 NW 3 6 30.50 1033 10 16 N/A
4:35 am 04:35 Clear 36 2 33 0.6 91 91 NW 5 7 30.50 1033 10 16 N/A
4:55 am 04:55 Clear 35 1.6 33 0.5 93 93 NW 7 11 30.50 1033 10 16 N/A
5:15 am 05:15 Clear 34 1.3 32 0.1 92 92 NW 6 9 30.50 1033 10 16 N/A
5:35 am 05:35 Clear 36 2.3 34 1.1 92 92 NNW 7 11 30.53 1034 10 16 N/A
5:55 am 05:55 Clear 36 2.2 34 0.9 91 91 NNW 6 9 30.53 1034 10 16 N/A
6:20 am 06:20 Clear 36 2.2 34 1 92 92 N 8 13 30.53 1034 10 16 N/A
6:35 am 06:35 Clear 37 2.5 34 1.1 91 91 N 9 15 30.53 1034 10 16 N/A
6:55 am 06:55 Clear 36 2.4 34 1 91 91 N 8 13 30.53 1034 10 16 N/A
7:15 am 07:15 Clear 36 2.2 33 0.8 91 91 NNW 8 13 30.53 1034 10 16 N/A
7:35 am 07:35 Sunny 35 1.4 32 0.2 92 92 NW 6 9 30.53 1034 10 16 N/A
7:55 am 07:55 Sunny 35 1.7 33 0.6 93 93 NNW 6 9 30.56 1035 10 16 N/A
8:15 am 08:15 Sunny 37 2.6 35 1.4 92 92 NNW 5 7 30.56 1035 10 16 N/A
8:35 am 08:35 Sunny 38 3.6 36 2.3 91 91 NNW 5 7 30.56 1035 10 16 N/A
8:55 am 08:55 Sunny 41 5.2 38 3.5 89 89 N 6 9 30.53 1034 10 16 N/A
9:15 am 09:15 Sunny 43 6.1 40 4.2 88 88 N 6 9 30.53 1034 10 16 N/A
9:35 am 09:35 Sunny 45 7.1 41 5.1 87 87 N 9 15 30.50 1033 10 16 N/A
9:55 am 09:55 Sunny 46 8 41 5 82 82 N 12 19 30.50 1033 10 16 N/A
10:15 am 10:15 Sunny 47 8.4 42 5.6 83 83 N 10 17 30.50 1033 10 16 N/A
10:35 am 10:35 Sunny 48 9 42 5.5 79 79 NNE 12 19 30.53 1034 10 16 N/A
10:55 am 10:55 Sunny 49 9.5 42 5.5 76 76 NNE 9 15 30.50 1033 10 16 N/A
11:15 am 11:15 Sunny 50 9.8 42 5.6 75 75 N 6 9 30.50 1033 10 16 N/A
11:35 am 11:35 Sunny 51 10.4 41 5.1 70 70 NNE 12 19 30.48 1032 10 16 N/A
11:55 am 11:55 Sunny 51 10.6 41 5.2 70 70 NNE 10 17 30.48 1032 10 16 N/A
12:15 pm 12:15 Sunny 52 11.1 42 5.3 68 68 N 12 19 30.48 1032 10 16 N/A
12:35 pm 12:35 Sunny 53 11.5 40 4.7 63 63 N 9 15 30.48 1032 10 16 N/A
12:55 pm 12:55 Sunny 53 11.8 40 4.3 60 60 NNE 8 13 30.48 1032 10 16 N/A
1:15 pm 13:15 Sunny 54 12 40 4.5 60 60 NNE 8 13 30.48 1032 10 16 N/A
1:35 pm 13:35 Sunny 54 12.4 40 4.4 58 58 NNE 7 11 30.45 1031 10 16 N/A
1:55 pm 13:55 Sunny 55 12.7 39 4.1 56 56 N 8 13 30.45 1031 10 16 N/A
2:15 pm 14:15 Sunny 55 13 40 4.4 56 56 N 8 13 30.45 1031 10 16 N/A
2:35 pm 14:35 Sunny 56 13.1 40 4.3 55 55 NNE 3 6 30.45 1031 10 16 N/A
2:55 pm 14:55 Sunny 55 13 39 4 55 55 NNE 9 15 30.45 1031 10 16 N/A
3:15 pm 15:15 Sunny 56 13.1 39 3.9 54 54 N 8 13 30.45 1031 10 16 N/A
3:35 pm 15:35 Sunny 56 13.1 39 4.1 55 55 N 6 9 30.45 1031 10 16 N/A
3:55 pm 15:55 Sunny 55 13 40 4.2 55 55 N 7 11 30.45 1031 10 16 N/A
4:15 pm 16:15 Sunny 55 12.8 40 4.3 57 57 N 8 13 30.45 1031 10 16 N/A
4:35 pm 16:35 Sunny 54 12.4 40 4.4 58 58 N 3 6 30.45 1031 10 16 N/A
4:55 pm 16:55 Sunny 53 11.6 41 5 64 64 NNE 3 6 30.45 1031 10 16 N/A
5:15 pm 17:15 Sunny 50 9.9 40 4.6 70 70 NNE 3 6 30.48 1032 10 16 N/A
5:35 pm 17:35 Clear 49 9.2 40 4.7 74 74 NNE 3 6 30.48 1032 10 16 N/A
5:55 pm 17:55 Clear 46 7.6 40 4.3 80 80 NE 3 6 30.48 1032 10 16 N/A
6:15 pm 18:15 Clear 45 7 40 4.2 83 83 N N/A 30.48 1032 10 16 N/A
6:35 pm 18:35 Clear 44 6.7 39 4.1 84 84 N N/A 30.50 1033 10 16 N/A
6:55 pm 18:55 Clear 42 5.7 39 3.8 88 88 NE 5 7 30.50 1033 10 16 N/A
7:15 pm 19:15 Clear 40 4.7 37 2.7 87 87 ENE 5 7 30.50 1033 10 16 N/A
7:35 pm 19:35 Clear 40 4.5 37 2.7 88 88 E 5 7 30.50 1033 10 16 N/A
7:55 pm 19:55 Clear 40 4.5 37 2.5 87 87 N N/A 30.50 1033 10 16 N/A
8:15 pm 20:15 Clear 41 4.9 37 2.7 86 86 N N/A 30.50 1033 10 16 N/A
8:35 pm 20:35 Clear 40 4.6 38 3.4 92 92 N N/A 30.50 1033 10 16 N/A
8:55 pm 20:55 Clear 37 2.8 35 1.5 91 91 N N/A 30.56 1035 10 16 N/A
9:15 pm 21:15 Clear 37 2.9 35 1.4 90 90 N N/A 30.53 1034 10 16 N/A
9:35 pm 21:35 Clear 35 1.7 33 0.6 93 93 ESE 3 6 30.56 1035 10 16 N/A
9:55 pm 21:55 Clear 37 2.5 35 1.4 93 93 N N/A 30.56 1035 10 16 N/A
10:15 pm 22:15 Clear 37 3 36 2 93 93 N N/A 30.53 1034 10 16 N/A
10:35 pm 22:35 Clear 38 3.4 37 2.7 95 95 N N/A 30.53 1034 10 16 N/A
10:55 pm 22:55 Clear 38 3.5 37 2.7 95 95 S 3 6 30.53 1034 10 16 N/A
11:15 pm 23:15 Clear 39 3.9 37 2.7 92 92 S 5 7 30.50 1033 10 16 N/A
11:35 pm 23:35 Clear 36 2.3 34 0.9 91 91 N N/A 30.53 1034 10 16 N/A
11:55 pm 23:55 Clear 36 2 34 1.1 94 94 S 3 6 30.56 1035 7 11 N/A

Powered by AerisWeather